Regional Weather Roundup
Issued by NWS

Home | Current Version | Previous Version | Graphics & Text | Print | Product List | Glossary On
Versions: 1 2 3 4 5 6 7 8 9 10 11 12 13 14 15 16 17 18 19 20 21 22 23 24 25 26 27 28 29 30 31 32 33 34 35 36 37 38 39 40 41 42 43 44 45 46 47 48 49 50
000
ASUS45 KTFX 261010
RWRMT
MONTANA REGIONAL WEATHER ROUNDUP
NATIONAL WEATHER SERVICE GREAT FALLS MT
400 AM MDT WED JUL 26 2017

NOTE: "FAIR" INDICATES FEW OR NO CLOUDS BELOW 12000 FEET WITH NO
SIGNIFICANT WEATHER AND/OR OBSTRUCTIONS TO VISIBILITY.

MTZ001>007-043-261100-
WEST OF THE DIVIDE

CITY           SKY/WX    TMP DP  RH WIND       PRES   REMARKS
KALISPELL      CLEAR     54  43  66 CALM      30.04R
MISSOULA       CLEAR     59  36  42 NE3       30.08R
BUTTE          CLEAR     53  44  71 SE7       30.22R
MULLAN PASS    PTCLDY    64  32  30 CALM      30.22S
ANACONDA         N/A     55  34  44 SW6       30.17S
DEER LODGE       N/A     54  41  62 CALM      30.18R
EUREKA           N/A     48  34  57 MISG      30.06R
HAMILTON         N/A     57  41  54 CALM      30.10R
LIBBY            N/A     52  36  54 CALM      30.05R
PLAINS           N/A     55  40  57 CALM      30.05
$$

MTZ008-052>055-261100-
SOUTHWEST MONTANA

CITY           SKY/WX    TMP DP  RH WIND       PRES   REMARKS
BOZEMAN        CLEAR     56  48  74 W3        30.15R
DILLON         CLOUDY    58  47  66 S9        30.18S
W YELLOWSTONE  CLOUDY    43  41  93 CALM      30.32R
ENNIS          CLEAR     54  46  76 NE5       30.24S
THREE FORKS      N/A     55  48  77 CALM      30.12R
TWIN BRIDGES     N/A     54  44  68 CALM      30.15
$$

MTZ009-010-012-014-046-048-049-054-261100-
EAST SLOPES AND CENTRAL MONTANA

CITY           SKY/WX    TMP DP  RH WIND       PRES   REMARKS
CUT BANK       CLEAR     50  40  68 NW8       30.14S
GREAT FALLS    CLEAR     55  39  54 W8        30.12R
HELENA         CLEAR     67  40  37 SW7       30.13R
CHOTEAU          N/A     54  37  54 NW7       30.15S
$$

MTZ011-013-016-021-045-047-050-051-261100-
NORTH CENTRAL MONTANA

CITY           SKY/WX    TMP DP  RH WIND       PRES   REMARKS
HAVRE          CLEAR     60  43  53 E9        30.08S
LEWISTOWN      PTCLDY    54  42  64 S6        30.14R
N BAR RANCH      N/A     54  41  62 CALM      30.19S
CHINOOK          N/A     59  43  55 E3        30.10S
$$

MTZ017>020-022>027-061-062-261100-
NORTHEAST MONTANA

CITY           SKY/WX    TMP DP  RH WIND       PRES   REMARKS
GLASGOW        PTCLDY    58  44  60 E7        30.11R
JORDAN           N/A     54  37  52 W5        30.11R
SIDNEY         CLEAR     60  46  59 N5        30.12R
WOLF POINT     CLEAR     57  42  57 E3        30.12R
MALTA          CLOUDY    55  46  71 CALM      30.10S
PLENTYWOOD       N/A     61  52  72 CALM      30.13R
POPLAR           N/A     61  46  59 NE6       30.12S
SCOBEY           N/A     49  37  63 CALM      30.12
$$

MTZ028>42-056>058-261100-
SOUTHCENTRAL AND SOUTHEAST MONTANA

CITY           SKY/WX    TMP DP  RH WIND       PRES   REMARKS
BAKER          MOCLDY    60  44  55 SE7       30.12S
BILLINGS       CLEAR     61  45  55 SW3       30.12F
LIVINGSTON     CLEAR     47  42  83 CALM      30.18S
MILES CITY     CLEAR     64  39  39 N7        30.08S
BIG TIMBER     CLEAR     50  43  76 W9        30.18F
EKALAKA          N/A     63  52  67 SE6       30.11S
FORSYTH          N/A     64  43  45 CALM      30.08S
LAUREL           N/A     56  43  61 CALM      30.11F
$$

REGIONAL REPORTS...DAKOTAS

CITY           SKY/WX    TMP DP  RH WIND       PRES   REMARKS
WILLISTON      CLEAR     59  49  69 CALM      30.12S
MINOT          CLEAR     59  54  83 CALM      30.09R
DICKINSON      CLEAR     58  49  72 NE7       30.10S
BEACH            N/A     57  46  67 CALM      30.15S
CROSBY           N/A     50  50 100 CALM      30.13S
TIOGA            N/A     48  48 100 CALM      30.15S
WATFORD CITY     N/A     52  45  76 CALM      30.12R
BISMARCK       PTCLDY    61  56  83 CALM      30.08S
GRAND FORKS    CLOUDY    62  59  90 W6        29.99R
FARGO          CLOUDY    61  58  90 S8        30.00R
BUFFALO SD       N/A     66  57  72 W5        30.06S
RAPID CITY     CLOUDY    69  52  54 N12       30.12R
$$

REGIONAL REPORTS...WYOMING/IDAHO/WASHINGTON

CITY           SKY/WX    TMP DP  RH WIND       PRES   REMARKS
GILLETTE       CLOUDY    61  60  97 CALM      30.17S
SHERIDAN       CLOUDY    59  56  89 W5        30.16S
BUFFALO WY     CLOUDY    61  53  75 W5        30.20S
CODY           CLEAR     53  50  89 W5        30.21S
YELLOWSTONE LA   N/A     42  42 100 CALM      30.40S
IDAHO FALLS    MOCLDY    58  55  90 N5        30.17R
BOISE          MOCLDY    79  51  37 SE7       30.04R
SPOKANE        PTCLDY    65  38  36 CALM      30.01R
$$

REGIONAL REPORTS...ALBERTA

CITY           SKY/WX    TMP DP  RH WIND       PRES   REMARKS
EDMONTON       CLEAR     50  48  93 SW3       30.05S
CALGARY        PTCLDY    55  45  67 S6        30.11F
LETHBRIDGE     CLEAR     46  43  87 W6        30.11S
MEDICINE HAT   CLEAR     52  45  76 S5        30.09S
$$

REGIONAL REPORTS...SASKATCHEWAN

CITY           SKY/WX    TMP DP  RH WIND       PRES   REMARKS
SWIFT CURRENT  CLEAR     54  48  82 S9        30.12S
REGINA         CLEAR     52  50  93 S3        30.12R
SASKATOON      CLEAR     50  50 100 SW5       30.10R
$$



USA.gov is the U.S. government's official web portal to all federal, state and local government web resources and services.